Lawrence, MA

12:56 PM EDT on August 18, 2017 (GMT -0400)
Lawrence Municipal

Weather History for KLWM - August, 2013

Change the Weather History Date:

Friday, August 2, 2013

  Actual Average Record
Temperature  
Mean Temperature 73 °F -  
Max Temperature 84 °F 83 °F 97 °F (1975)
Min Temperature 64 °F 62 °F 49 °F (1991)
Cooling Degree Days 8    
Growing Degree Days 23 (Base 50)    
Moisture  
Dew Point 61 °F    
Average Humidity 75    
Maximum Humidity 94    
Minimum Humidity 39    
Precipitation  
Precipitation 1.12 in - - ()
Sea Level Pressure  
Sea Level Pressure 29.84 in    
Wind  
Wind Speed 4 mph (WSW)    
Max Wind Speed 20 mph    
Max Gust Speed 36 mph    
Visibility 8 miles    
Events Rain , Thunderstorm    
Averages and records for this station are not official NWS values.
T = Trace of Precipitation, MM = Missing Value Source: NWS Daily Summary

Daily Weather History Graph

Daily Weather History Graph

Search for Another Location

Airport or City:

Trip Planner

Search our weather history database for the weather conditions in past years. The results will help you decide how hot, cold, wet, or windy it might be!

Date:

Astronomy

Aug. 02, 2013 Rise Set
Actual Time 5:37 AM EDT 8:03 PM EDT
Civil Twilight 5:05 AM EDT 8:35 PM EDT
Nautical Twilight 4:25 AM EDT 9:14 PM EDT
Astronomical Twilight 3:41 AM EDT 9:58 PM EDT
Moon 1:54 AM EDT (8/2) 4:59 PM EDT (8/2)
Length of Visible Light 15h 29m
Length of Day
14h 26m
Waning Crescent, 16% of the Moon is Illuminated
Aug 2
Waning Crescent
Aug 6
New
Aug 14
First Quarter
Aug 20
Full
Aug 28
Last Quarter

Hourly Weather History & Observations

Time (EDT) Temp. Heat Index Dew Point Humidity Pressure Visibility Wind Dir Wind Speed Gust Speed Precip Events Conditions
12:54 AM 68.0 °F - 62.1 °F 81% 29.88 in 10.0 mi Variable 3.5 mph - 0.00 in   Overcast
1:54 AM 66.9 °F - 61.0 °F 81% 29.86 in 10.0 mi Variable 3.5 mph - 0.00 in   Overcast
2:16 AM 66.2 °F - 60.8 °F 83% 29.86 in 10.0 mi Calm Calm - 0.00 in Rain Light Rain
2:54 AM 66.0 °F - 61.0 °F 84% 29.83 in 10.0 mi Calm Calm - 0.00 in   Overcast
3:41 AM 66.2 °F - 62.6 °F 88% 29.83 in 9.0 mi Calm Calm - 0.01 in Rain Light Rain
3:54 AM 66.0 °F - 62.1 °F 87% 29.83 in 4.0 mi Calm Calm - 0.02 in Rain Rain
4:13 AM 64.4 °F - 62.6 °F 94% 29.84 in 2.0 mi Calm Calm - 0.08 in Rain Heavy Rain
4:46 AM 64.4 °F - 62.6 °F 94% 29.84 in 1.5 mi Calm Calm - 0.30 in Rain Heavy Rain
4:54 AM 64.9 °F - 62.1 °F 90% 29.84 in 2.0 mi SSW 4.6 mph - 0.34 in Rain Heavy Rain
5:16 AM 64.4 °F - 62.6 °F 94% 29.84 in 1.5 mi South 4.6 mph - 0.20 in Rain Heavy Rain
5:36 AM 64.4 °F - 62.6 °F 94% 29.84 in 3.0 mi Variable 3.5 mph - 0.41 in Rain Rain
5:47 AM 64.4 °F - 60.8 °F 88% 29.84 in 4.0 mi SSW 3.5 mph - 0.44 in Rain Rain
5:54 AM 64.9 °F - 61.0 °F 87% 29.84 in 5.0 mi South 3.5 mph - 0.45 in Rain Rain
6:04 AM 64.4 °F - 60.8 °F 88% 29.84 in 6.0 mi SSW 3.5 mph - 0.01 in Rain Light Rain
6:10 AM 64.4 °F - 60.8 °F 88% 29.84 in 1.8 mi Calm Calm - 0.05 in Rain Heavy Rain
6:34 AM 64.4 °F - 62.6 °F 94% 29.84 in 2.0 mi Calm Calm - 0.08 in Rain Light Rain
6:54 AM 64.9 °F - 62.1 °F 90% 29.85 in 2.0 mi Calm Calm - 0.09 in Rain Light Rain
7:36 AM 64.4 °F - 62.6 °F 94% 29.85 in 6.0 mi Calm Calm - 0.00 in   Overcast
7:54 AM 66.0 °F - 63.0 °F 90% 29.85 in 7.0 mi Calm Calm - 0.00 in   Overcast
8:54 AM 68.0 °F - 64.0 °F 87% 29.85 in 10.0 mi SSW 3.5 mph - N/A   Overcast
9:08 AM 68.0 °F - 64.4 °F 88% 29.85 in 10.0 mi SSW 4.6 mph - N/A   Overcast
9:54 AM 70.0 °F - 64.9 °F 84% 29.84 in 10.0 mi Calm Calm - N/A   Overcast
10:02 AM 71.6 °F - 64.4 °F 78% 29.84 in 10.0 mi WSW 4.6 mph - N/A   Overcast
10:32 AM 71.6 °F - 64.4 °F 78% 29.84 in 10.0 mi West 8.1 mph - N/A   Overcast
10:39 AM 71.6 °F - 64.4 °F 78% 29.84 in 10.0 mi West 6.9 mph - N/A   Overcast
10:54 AM 71.1 °F - 64.0 °F 78% 29.84 in 10.0 mi WNW 3.5 mph - N/A   Overcast
11:10 AM 73.4 °F - 64.4 °F 73% 29.84 in 10.0 mi WNW 6.9 mph - N/A   Overcast
11:49 AM 75.2 °F - 64.4 °F 69% 29.84 in 10.0 mi Calm Calm - N/A   Scattered Clouds
11:54 AM 75.9 °F - 64.0 °F 67% 29.84 in 10.0 mi Calm Calm - N/A   Partly Cloudy
12:35 PM 78.8 °F - 62.6 °F 57% 29.83 in 10.0 mi West 9.2 mph - N/A   Mostly Cloudy
12:50 PM 78.8 °F - 62.6 °F 57% 29.82 in 10.0 mi West 5.8 mph - N/A   Mostly Cloudy
12:54 PM 78.1 °F - 62.1 °F 58% 29.82 in 10.0 mi NW 3.5 mph - N/A   Mostly Cloudy
1:54 PM 80.1 °F 81.2 °F 62.1 °F 54% 29.81 in 10.0 mi West 5.8 mph - N/A   Scattered Clouds
2:39 PM 82.4 °F 82.9 °F 60.8 °F 48% 29.80 in 10.0 mi WSW 6.9 mph - N/A   Partly Cloudy
2:54 PM 82.9 °F 82.6 °F 57.9 °F 42% 29.80 in 10.0 mi West 15.0 mph 19.6 mph N/A   Partly Cloudy
3:54 PM 82.0 °F 82.0 °F 57.9 °F 44% 29.80 in 10.0 mi West 9.2 mph 16.1 mph N/A   Mostly Cloudy
4:54 PM 82.0 °F 82.0 °F 57.9 °F 44% 29.80 in 10.0 mi WSW 13.8 mph 21.9 mph N/A   Mostly Cloudy
5:54 PM 81.0 °F 80.7 °F 55.0 °F 41% 29.81 in 10.0 mi WSW 13.8 mph 19.6 mph N/A   Clear
6:54 PM 80.1 °F 79.9 °F 53.1 °F 39% 29.82 in 10.0 mi WSW 10.4 mph - N/A   Clear
7:54 PM 77.0 °F - 54.0 °F 45% 29.84 in 10.0 mi WSW 4.6 mph - N/A   Clear
8:54 PM 73.0 °F - 57.0 °F 57% 29.86 in 10.0 mi South 3.5 mph - N/A   Clear
9:54 PM 71.1 °F - 59.0 °F 66% 29.87 in 10.0 mi SSW 3.5 mph - N/A   Partly Cloudy
10:54 PM 70.0 °F - 60.1 °F 71% 29.88 in 10.0 mi SSW 6.9 mph - N/A   Partly Cloudy
11:02 PM 71.6 °F - 60.8 °F 69% 29.89 in 9.0 mi West 15.0 mph 28.8 mph N/A Thunderstorm Thunderstorm
11:06 PM 69.8 °F - 60.8 °F 73% 29.90 in 1.8 mi WNW 19.6 mph 35.7 mph 0.17 in Rain , Thunderstorm Thunderstorms and Rain
11:16 PM 66.2 °F - 59.0 °F 78% 29.88 in 4.0 mi South 5.8 mph - 0.22 in Rain Light Rain
11:25 PM 66.2 °F - 60.8 °F 83% 29.87 in 10.0 mi SSE 4.6 mph - 0.22 in Rain , Thunderstorm Light Rain
11:44 PM 66.2 °F - 60.8 °F 83% 29.88 in 10.0 mi Calm Calm - 0.22 in   Scattered Clouds
11:54 PM 66.0 °F - 62.1 °F 87% 29.88 in 10.0 mi Calm Calm - 0.22 in   Partly Cloudy